{"data":{"norad_id":61976,"epoch":"2026-09-21T09:56:48.271776Z","epoch_age_seconds":106651,"freshness":"FRESH","line1":"1 61976U 24210T   26264.41444759  .00007099  00000+0  26719-3 0  9998","line2":"2 61976  43.0014 154.4610 0000698 285.9243  74.1532 15.27585452104810","mean_motion":15.27585452,"eccentricity":6.98e-5,"inclination_deg":43.0014,"raan_deg":154.461,"arg_perigee_deg":285.9243,"mean_anomaly_deg":74.1532,"bstar":0.00026719,"rev_number":10481,"period_min":94.266412272693,"perigee_km":482.55386118886,"apogee_km":483.51168048886,"semimajor_km":6861.1697708389,"source":"CELESTRAK","updated_at":"2026-09-22T09:00:49.480560Z"}}